Home > Time Zones > World Clock > Weather > India > Theni > Past weeks

Flag Weather past 2 weeks in Theni, Tamil Nadu, India

Now
75 °F

Passing clouds.


Feels Like: 75 °F
Forecast: 68 / 89 °F
Wind: 3 mph from Northwest

Location: Coimbatore / Peelamedu

Current Time: Oct 30, 2014 at 11:17:46 PM

Latest Report: Oct 30, 2014 at 10:30 PM


Visibility: 4 mi

Pressure: 29.95 "Hg

Humidity: 83%

Dew point: 70 °F

Location of TheniLocation

Historic Weather in Theni — Graph

°F

Theni temperature yesterday

Maximum temperature yesterday: 86 °F (at 2:30 PM)
Minimum temperature yesterday: 72 °F (at 2:30 AM)
Average temperature yesterday: 79 °F

Past Weeks' High & Low Weather Summary

 TemperatureHumidityPressure
High88 °F (Oct 16, 2:30 PM)100% (Oct 16, 2:30 AM)30.04 "Hg (Oct 16, 2:30 AM)
Low72 °F (Oct 15, 11:00 PM)55% (Oct 17, 2:00 PM)26.23 "Hg (Oct 24, 9:00 PM)
Average78 °F83%29.92 "Hg
* Reported Oct 15 11:00 PM — Oct 30 10:00 PM, Theni, Weather by CustomWeather, © 2014

Note: Actual official high and low records may vary slightly from our data, if they occured in-between our weather recording intervals... More about our weather records

Advertising

Theni weather history for previous 24 hours

 ConditionsComfort  
Time TempWeatherWind HumidityBarometerVisibility
10:00 PM
Oct 30
75 °FPassing clouds.3 mph83%29.95 "Hg4 mi
9:30 PM75 °FPassing clouds.3 mph83%29.95 "Hg4 mi
9:00 PM75 °FPassing clouds.3 mph89%29.95 "Hg4 mi
8:30 PM75 °FPassing clouds.3 mph83%29.92 "Hg4 mi
8:00 PM79 °FPassing clouds.3 mph74%29.92 "Hg4 mi
7:30 PM79 °FPassing clouds.3 mph74%29.92 "Hg4 mi
7:00 PM79 °FPassing clouds.2 mph74%29.89 "Hg4 mi
6:30 PM81 °FPassing clouds.No wind66%29.89 "Hg4 mi
6:00 PM82 °FPassing clouds.No wind58%29.86 "Hg4 mi
5:30 PM82 °FPassing clouds.2 mph58%29.86 "Hg4 mi
5:00 PM82 °FPassing clouds.No wind66%29.86 "Hg4 mi
4:30 PM82 °FPassing clouds.5 mph66%29.86 "Hg4 mi
4:00 PM82 °FScattered clouds.3 mph62%29.86 "Hg4 mi
3:30 PM84 °FScattered clouds.5 mph58%29.86 "Hg4 mi
3:00 PM84 °FScattered clouds.2 mph58%29.86 "Hg4 mi
2:30 PM84 °FScattered clouds.6 mph58%29.86 "Hg4 mi
2:00 PM84 °FScattered clouds.5 mph58%29.86 "Hg4 mi
1:30 PM84 °FScattered clouds.7 mph58%29.89 "Hg3 mi
1:00 PM84 °FScattered clouds.7 mph58%29.89 "Hg3 mi
12:30 PM82 °FScattered clouds.7 mph66%29.89 "Hg3 mi
12:00 PM82 °FScattered clouds.9 mph66%29.92 "Hg3 mi
11:30 AM82 °FScattered clouds.9 mph66%29.92 "Hg3 mi
11:00 AM81 °FScattered clouds.7 mph70%29.95 "Hg3 mi
10:00 AM81 °FScattered clouds.9 mph70%29.95 "Hg2 mi
9:30 AM79 °FScattered clouds.12 mph74%29.98 "Hg2 mi
8:00 AM75 °FFog.6 mph94%29.95 "Hg1 mi
7:30 AM75 °FFog.5 mph89%29.95 "Hg1 mi
7:00 AM73 °FFog.5 mph94%29.92 "Hg1 mi
6:30 AM73 °FFog.2 mph89%29.92 "Hg1 mi
6:00 AM73 °FPassing clouds.No wind89%29.92 "Hg2 mi
5:30 AM73 °FPassing clouds.2 mph89%29.92 "Hg2 mi
5:00 AM73 °FPassing clouds.2 mph89%29.92 "Hg2 mi
4:30 AM73 °FPartly cloudy.2 mph89%29.89 "Hg2 mi
4:00 AM73 °FLight rain. Partly cloudy.2 mph89%29.89 "Hg2 mi
3:00 AM73 °FPartly cloudy.3 mph94%29.89 "Hg2 mi
2:30 AM73 °FPartly cloudy.2 mph94%29.89 "Hg2 mi
1:30 AM75 °FPartly cloudy.3 mph89%29.92 "Hg2 mi
12:30 AM75 °FPartly cloudy.3 mph89%29.92 "Hg2 mi
11:30 PM
Oct 29
75 °FPartly cloudy.3 mph89%29.92 "Hg2 mi
11:00 PM77 °FRain. Partly cloudy.5 mph89%29.92 "Hg2 mi
Weather by CustomWeather, © 2014

See weather overviewHow to use our weather pages